Home   Weather   Santo Domingo   Past weeks

Flag for Ecuador Past Weather in Santo Domingo, Ecuador — Yesterday and Last 2 Weeks

Now
54 °F

Scattered clouds.


Feels Like: 54 °F
Forecast: 71 / 93 °F
Wind: 1 mph from South

Location: Latacunga Airport

Current Time: Dec 3, 2016 at 8:53:50 am

Latest Report: Dec 3, 2016 at 8:00 am


Visibility: N/A

Pressure: 30.45 "Hg (28.47 "Hg at 560m altitude)

Humidity: 100%

Dew Point: 54 °F

Location of Santo DomingoLocation

Past Weather in Santo Domingo — Graph

°F

Santo Domingo Temperature Yesterday

Maximum temperature yesterday: 64 °F (at 2:00 pm)
Minimum temperature yesterday: 48 °F (at 12:00 am)
Average temperature yesterday: 53 °F

High & Low Weather Summary for the Past Weeks

 TemperatureHumidityPressure
High75 °F (Nov 21, 1:00 pm)100% (Nov 18, 10:00 pm)30.48 "Hg (Nov 18, 10:00 pm)
Low30 °F (Nov 21, 5:00 am)15% (Nov 21, 1:00 pm)30.18 "Hg (Nov 22, 3:00 pm)
Average56 °F82%30.36 "Hg
* Reported Nov 18 8:00 am — Dec 3 8:00 am, Santo Domingo, Weather by CustomWeather, © 2016

Note: Actual official high and low records may vary slightly from our data, if they occured in-between our weather recording intervals... More about our weather records

Advertising

Santo Domingo Weather History for the Previous 24 Hours

Scroll right to see more
 ConditionsComfort  
Time TempWeatherWind HumidityBarometerVisibility
8:00 am
Sat, Dec 3
54 °FScattered clouds.1 mph100%30.45 "HgN/A
7:00 am52 °FScattered clouds.3 mph100%30.42 "HgN/A
6:00 am52 °FLight rain. Passing clouds.3 mph100%30.39 "HgN/A
5:00 am52 °FPassing clouds.3 mph100%30.39 "HgN/A
4:00 am52 °FPassing clouds.5 mph100%30.36 "HgN/A
3:00 am52 °FPassing clouds.5 mph100%30.36 "HgN/A
2:00 am52 °FPassing clouds.8 mph100%30.39 "HgN/A
1:00 am52 °FPassing clouds.2 mph100%30.39 "HgN/A
12:00 am52 °FPassing clouds.3 mph100%30.42 "HgN/A
11:00 pm
Fri, Dec 2
52 °FPassing clouds.2 mph100%30.42 "HgN/A
10:00 pm52 °FPassing clouds.1 mph100%30.42 "HgN/A
9:00 pm54 °FPassing clouds.2 mph100%30.42 "HgN/A
8:00 pm54 °FPassing clouds.2 mph100%30.39 "HgN/A
7:00 pm55 °FPassing clouds.3 mph100%30.36 "HgN/A
5:00 pm55 °FScattered clouds.8 mph100%30.33 "HgN/A
3:00 pm55 °FLight rain. Partly sunny.3 mph100%30.36 "HgN/A
2:00 pm64 °FScattered showers. Broken clouds.13 mph68%30.36 "HgN/A
11:00 am61 °FBroken clouds.3 mph77%30.45 "HgN/A
10:00 am55 °FMostly cloudy.1 mph100%30.48 "HgN/A
9:00 am54 °FMostly cloudy.1 mph100%30.48 "HgN/A
8:00 am52 °FMostly cloudy.1 mph100%30.45 "HgN/A
Weather by CustomWeather, © 2016

See weather overviewHow to use our weather pages